Ellensburg, WA

1:52 AM PST on January 26, 2015 (GMT -0800)
Ellensburg WA | Change Station
CLOSE
Current Station
Personal Weather Station
Location: Ellensburg, WA
Elevation: 1541 ft
Nearby Weather Stations
Active Advisory: Dense Fog Advisory Active Notice: Record Report

Elev 1541 ft 47.00 °N, 120.55 °W | Updated 1 minute ago

Fog
Fog
34.3 °F
Feels Like 34 °F
N
2.0
Wind Variable Wind from NW
Gusts 2.0 mph

Today
High -- | Low -- °F
--% Chance of Precip.
Yesterday
High -- | Low -- °F
Precip. -- in
7:34 AM 4:55 PM
Waxing Crescent, 41% visible
Pressure 30.14 in
Visibility 0.2 miles
Clouds
Windchill 34 °F
Dew Point 34 °F
Humidity 99%
Rainfall 0.00 in
Snow Depth Not available.
UV Not available.
Pollen 4.00 out of 12
Air Quality Not available.
Flu Activity Not available.
METAR KELN 260853Z AUTO 06003KT 1/4SM FG VV001 02/00 A3011 RMK AO2 SLP206 I3000 T00170000 58010

More Conditions Fewer Conditions

Pressure 30.14 in
Visibility 0.2 miles
Clouds
Windchill 34 °F
Dew Point 34 °F
Humidity 99%
Rainfall 0.00 in
Snow Depth Not available.
UV Not available.
Pollen 4.00 out of 12
Air Quality Not available.
Flu Activity Not available.
METAR KELN 260853Z AUTO 06003KT 1/4SM FG VV001 02/00 A3011 RMK AO2 SLP206 I3000 T00170000 58010

More Conditions Fewer Conditions

10-Day Weather Forecast

Almanac

Astronomy

Jan. 26, 2015 Rise Set
Actual Time
Civil Twilight
Nautical Twilight
Astronomical Twilight
Moon
Length of Visible Light
Length of Day
Tomorrow will be .
, % of the Moon is Illuminated

Today's Extremes

State Highs State Lows

Community

WunderPhotos

Upload Photos

1,790,163 photos uploaded!

WunderBlogs® & News

Nearby

Air Quality

  Air Quality AQ Index Pollutant
Not available.

Snow Depth

Station Depth Elevation

Earthquake Activity

City Distance Mag. Time & Date
Minimum magnitude displayed is 2.5.

Coastal Water Temperatures

Place Temperature

Nearby Weather Stations